Flight Track Log - Related Links

Times and Time Zones

All times are in EDT time to prevent confusion due to time zone crossing. See the ASQ6177 flight status page for this flight to view local times or setup timezone preferences in your user account.

Time Position Orientation Groundspeed Altitude Reporting Facility
EDT Latitude Longitude Course Direction KTS MPH feet Rate Location/Type
Mon 12:35:56 PM 38.9667 -77.4500 293° West 155 178 1,700  Level Potomac TRACON
Mon 12:36:56 PM 39.0167 -77.4833 333° Northwest 219 252 4,000 2,700 Climbing Potomac TRACON
Mon 12:37:56 PM 39.0667 -77.5167 333° Northwest 245 282 7,100 2,566 Climbing Potomac TRACON
Mon 12:39:00 PM 39.1609 -77.8176 North  Level Estimated
Mon 12:39:35 PM 39.1842 -77.5750 339° North 269 310 10,800  Level Cleveland Center
Mon 12:40:00 PM 39.2140 -77.9073 North  Level Estimated
Mon 12:40:37 PM 39.2725 -77.5869 354° North 314 361 12,400  Level Cleveland Center
Mon 12:41:00 PM 39.2672 -77.9972 293° West  Level Estimated
Mon 12:41:40 PM 39.3689 -77.6031 353° North 343 395 14,200  Level Cleveland Center
Mon 12:42:35 PM 39.4653 -77.6211 352° North 343 395 16,000 1,617 Climbing Washington Center
Mon 12:43:35 PM 39.5389 -77.7039 319° Northwest 337 388 17,300 1,438 Climbing Washington Center
Mon 12:44:36 PM 39.6081 -77.7947 315° West 342 394 18,900 1,714 Climbing Washington Center
Mon 12:45:48 PM 39.6911 -77.9058 314° West 352 405 21,100 1,791 Climbing Cleveland Center
Mon 12:46:50 PM 39.7583 -77.9964 314° West 349 402 22,900 1,403 Climbing Cleveland Center
Mon 12:47:52 PM 39.8264 -78.0867 314° West 350 403 24,000 532 Climbing Cleveland Center
Mon 12:48:54 PM 39.8967 -78.1903 311° West 377 434 24,000  Level Cleveland Center
Mon 12:49:56 PM 39.9739 -78.3092 310° West 400 460 24,000  Level Cleveland Center
Mon 12:50:58 PM 40.0467 -78.4194 311° West 401 461 24,000  Level Cleveland Center
Mon 12:52:00 PM 40.1197 -78.5322 310° West 405 466 24,000  Level Cleveland Center
Mon 12:53:02 PM 40.2069 -78.6656 311° West 402 463 24,000  Level Cleveland Center
Mon 12:54:04 PM 40.2797 -78.7772 311° West 401 461 24,000  Level Cleveland Center
Mon 12:55:06 PM 40.3489 -78.8925 308° West 400 460 24,000  Level Cleveland Center
Mon 12:56:08 PM 40.4156 -79.0072 307° West 395 455 24,000  Level Cleveland Center
Mon 12:57:10 PM 40.4822 -79.1278 306° West 408 470 24,000  Level Cleveland Center
Mon 12:58:12 PM 40.5603 -79.2675 306° West 398 458 24,000  Level Cleveland Center
Mon 12:59:14 PM 40.6289 -79.3886 307° West 405 466 24,000  Level Cleveland Center
Mon 01:00:16 PM 40.6931 -79.5033 306° West 397 457 24,000  Level Cleveland Center
Mon 01:01:18 PM 40.7544 -79.6178 305° West 389 448 24,000  Level Cleveland Center
Mon 01:02:21 PM 40.8164 -79.7303 306° West 384 442 24,000  Level Cleveland Center
Mon 01:03:23 PM 40.8792 -79.8425 307° West 383 441 24,000  Level Cleveland Center
Mon 01:04:25 PM 40.9525 -79.9772 306° West 381 438 24,000  Level Cleveland Center
Mon 01:05:27 PM 41.0153 -80.0919 306° West 385 443 24,000  Level Cleveland Center
Mon 01:06:29 PM 41.0764 -80.2039 306° West 380 437 24,000  Level Cleveland Center
Mon 01:07:31 PM 41.1375 -80.3178 305° West 381 438 24,000  Level Cleveland Center
Mon 01:08:33 PM 41.2094 -80.4481 306° West 379 436 24,000 -823 Level Cleveland Center
Mon 01:09:35 PM 41.2708 -80.5644 305° West 381 438 22,300 -2,274 Descending Cleveland Center
Mon 01:10:37 PM 41.3303 -80.6764 305° West 374 430 19,300 -2,778 Descending Cleveland Center
Mon 01:11:23 PM 41.3681 -80.7739 297° West 363 418 17,300 -2,516 Descending Cleveland Center
Mon 01:11:39 PM 41.3772 -80.7958 299° West 367 422 16,700 -2,615 Descending Cleveland Center
Mon 01:12:41 PM 41.4217 -80.9125 297° West 357 411 13,900 -2,960 Descending Cleveland Center
Mon 01:12:54 PM 41.4372 -80.9514 298° West 350 403 13,000 -3,045 Descending Cleveland Center
Mon 01:13:48 PM 41.4711 -81.0456 296° West 341 392 10,500 -1,676 Descending Cleveland Center
Mon 01:14:45 PM 41.5061 -81.1394 296° West 341 392 9,900 -492 Descending Cleveland Center
Mon 01:14:49 PM 41.5131 -81.1692 287° West 337 388 10,000 97 Climbing Cleveland Center
Mon 01:15:47 PM 41.4989 -81.2889 261° West 349 402 10,000  Level Cleveland Center
Mon 01:16:44 PM 41.4836 -81.4075 260° West 359 413 10,000  Level Cleveland Center
Mon 01:16:50 PM 41.4808 -81.4203 254° West 358 412 10,000  Level Cleveland Center
Mon 01:17:44 PM 41.4647 -81.5494 261° West 358 412 10,000  Level Cleveland Center
Mon 01:17:52 PM 41.4633 -81.5508 217° Southwest 358 412 10,000  Level Cleveland Center
Mon 01:18:45 PM 41.4469 -81.6778 260° West 354 407 10,000  Level Cleveland Center
Mon 01:18:54 PM 41.4453 -81.6781 187° South 353 406 10,000  Level Cleveland Center
Mon 01:19:40 PM 41.4314 -81.7786 260° West 286 329 10,000 -97 Level Cleveland Center
Mon 01:19:56 PM 41.4294 -81.7883 255° West 304 350 9,900 -778 Descending Cleveland Center
Mon 01:20:34 PM 41.4261 -81.8586 266° West 277 319 9,300 -1,161 Descending Cleveland Center
Mon 01:20:58 PM 41.4233 -81.9058 266° West 275 316 8,700 -1,343 Descending Cleveland Center
Mon 01:21:41 PM 41.4031 -81.9719 248° West 276 318 7,800 -1,452 Descending Cleveland Center
Mon 01:22:00 PM 41.3906 -81.9950 234° Southwest 279 321 7,200 -1,778 Descending Cleveland Center
Mon 01:23:02 PM 41.3522 -82.0833 240° Southwest 276 318 5,400 -1,778 Descending Cleveland Center
Mon 01:23:48 PM 41.3136 -82.1411 228° Southwest 252 290 4,000 -1,452 Descending Cleveland Center
Mon 01:24:04 PM 41.3050 -82.1356 154° Southeast 259 298 3,900 -393 Descending Cleveland Center
Mon 01:24:49 PM 41.2844 -82.0944 124° Southeast 165 190 3,600 -387 Descending Cleveland Center
Mon 01:25:06 PM 41.2869 -82.0800 77° East 205 236 3,500 -655 Descending Cleveland Center
Mon 01:25:44 PM 41.2981 -82.0383 70° East 171 197 3,000 -484 Descending Cleveland Center
Mon 01:26:08 PM 41.3036 -82.0217 66° East 178 205 3,000  Level Cleveland Center
Mon 01:26:44 PM 41.3256 -81.9900 47° Northeast 170 196 3,000 -387 Level Cleveland Center
Mon 01:27:10 PM 41.3383 -81.9664 54° Northeast 167 192 2,600 -889 Descending Cleveland Center
Mon 01:27:38 PM 41.3525 -81.9497 41° Northeast 158 182 2,200 -667 Descending Cleveland Center
Mon 01:28:13 PM 41.3631 -81.9286 56° Northeast 145 167 1,900 -590 Descending Cleveland Center
Mon 01:28:39 PM 41.3747 -81.9144 42° Northeast 134 154 1,600 -677 Descending Cleveland Center
Mon 01:29:15 PM 41.3853 -81.8922 58° Northeast 129 148 1,200 -689 Descending Cleveland Center
Mon 01:29:40 PM 41.3969 -81.8789 41° Northeast 141 162 900 -484 Descending Cleveland Center
Mon 01:30:17 PM 41.4064 -81.8581 59° Northeast 126 145 700 -324 Descending Cleveland Center

Login

Don't have an account? Register now (free) for customized features, flight alerts, and more!